[[{"header":{"parameterUnit":"m.s-1","parameterCategory":1,"la1":30.2991,"la2":30.254,"lo1":-89.0895,"lo2":-89.0444,"dy":0.0017,"dx":0.0017,"nx":28,"ny":28,"refTime":"2025-02-28T03:00:00:Z","depth":0,"parameterNumber":2,"parameterNumberName":"U-component_of_WINDS"},"data":[0,0,0,0,0,0,0,0,0,0,0,0,0,0,0,0,0,0,0,0,0,0,0,0,0,0,0,0,0,0,0,0,0,0,0,0,0,0,0,0,0,0,0,0,0,0,0,0,0,0,0,0,0,0,0,0,0,0,1.6878,1.6879,0,1.6915,1.6916,1.6916,1.6906,1.6905,1.6904,1.6903,1.6944,1.6945,1.6947,0,0,0,0,0,0,0,0,0,0,0,0,0,1.6803,1.6804,1.6878,1.6879,1.6879,1.6915,1.6916,1.6916,1.6906,1.6905,1.6904,1.6903,1.6943,1.6945,1.6947,0,0,0,0,0,0,0,0,0,0,0,0,0,1.6837,1.6805,1.6878,1.6878,1.6879,1.6915,1.6916,1.6917,1.6906,1.6905,1.6904,1.6903,1.6942,1.6945,1.6948,1.6987,0,0,1.6956,1.6957,0,0,0,0,0,0,0,0,1.6835,1.684,1.6878,1.6878,1.6879,1.6905,1.6904,1.694,1.6906,1.6896,1.6903,1.6902,1.6932,1.6935,1.6945,1.6989,1.6991,1.6956,1.6958,1.6959,1.696,0,0,0,0,0,0,0,1.6833,1.6838,1.6893,1.6878,1.6879,1.6878,1.6881,1.6911,1.692,1.6897,1.6896,1.69,1.6932,1.6942,1.6946,1.6992,1.6956,1.6958,1.696,1.6961,1.7074,1.7075,0,0,0,0,0,0,1.683,1.6836,1.6892,1.6894,1.6854,1.688,1.6884,1.6898,1.6919,1.6922,1.6901,1.69,1.6938,1.6943,1.6947,1.6997,1.6959,1.6961,1.6963,1.7072,1.7074,1.7075,0,0,0,0,0,0,1.6828,1.6835,1.689,1.6865,1.6872,1.6883,1.6898,1.6899,1.6909,1.6923,1.6925,1.691,1.6938,1.6943,1.6978,1.6998,1.6963,1.6965,1.7071,1.7073,1.7075,1.7096,0,0,0,0,0,0,1.6826,1.6834,1.6848,1.6866,1.6874,1.6919,1.6899,1.6901,1.6914,1.6912,1.6932,1.6934,1.6937,1.6974,1.6981,1.7001,1.6967,1.7069,1.7072,1.7074,1.7093,1.7098,1.7102,0,0,0,0,0,1.6823,1.6853,1.6849,1.6856,1.6891,1.6921,1.6925,1.6928,1.6915,1.693,1.694,1.6933,1.6995,1.6978,1.6985,1.7007,1.7068,1.7071,1.7074,1.7091,1.7097,1.7102,0,0,0,0,0,0,1.6837,1.6855,1.6851,1.6886,1.6902,1.6919,1.6937,1.6934,1.6954,1.6951,1.6954,1.6959,1.6995,1.7004,1.6985,1.7048,1.703,1.7034,1.704,1.7046,1.7051,1.7048,1.6969,0,0,0,0,0,1.6845,1.6866,1.688,1.691,1.6919,1.6927,1.694,1.694,1.6957,1.6964,1.6975,1.6993,1.7016,1.7032,1.7054,1.7095,1.71,1.7113,1.7118,1.7122,1.7126,1.7151,1.7158,1.7086,1.7086,1.7085,0,0,1.686,1.6872,1.6885,1.6914,1.6926,1.695,1.6932,1.6957,1.6976,1.6968,1.7001,1.7011,1.7031,1.7069,1.7087,1.7078,1.7147,1.7126,1.7129,1.7131,1.7155,1.7162,1.7168,1.7088,1.7087,1.7087,0,0,1.69,1.691,1.6938,1.6951,1.6969,1.6975,1.6982,1.6999,1.7005,1.7039,1.7035,1.7057,1.7097,1.7112,1.7124,1.7173,1.7169,1.718,1.7205,1.7229,1.7235,1.724,1.7259,1.7266,1.7184,1.7184,1.7185,0,1.6917,1.6951,1.6952,1.6978,1.6992,1.6986,1.7015,1.7028,1.7053,1.7064,1.7053,1.7105,1.7118,1.7161,1.7173,1.7183,1.7192,1.7178,1.7233,1.7239,1.7243,1.7262,1.7269,1.7186,1.7186,1.7186,1.7185,0,1.6972,1.6996,1.7016,1.704,1.7056,1.7084,1.7091,1.7107,1.7107,1.7115,1.7151,1.7166,1.7193,1.7203,1.7203,1.7247,1.7241,1.7232,1.7214,1.7252,1.7269,1.7276,1.7188,1.7187,1.7187,1.7187,0,0,1.702,1.7047,1.7054,1.7067,1.7088,1.7108,1.7136,1.7161,1.7176,1.7195,1.722,1.7255,1.7247,1.7262,1.7264,1.7285,1.7326,1.7274,1.7275,1.7284,1.7378,1.7385,1.7393,1.7323,1.7324,1.7325,1.7377,0,1.7063,1.7112,1.7115,1.716,1.7184,1.718,1.7205,1.7222,1.723,1.7253,1.7262,1.7288,1.7275,1.7284,1.7305,1.7316,1.7345,1.7312,1.7348,1.7349,1.7344,1.7402,1.741,1.7457,1.7383,1.7385,1.7385,0,1.7119,1.714,1.7187,1.7207,1.7218,1.724,1.7265,1.7286,1.7306,1.7311,1.7328,1.7328,1.736,1.734,1.7385,1.7363,1.7378,1.7386,1.7388,1.7392,1.737,1.7409,1.7473,1.748,1.7396,1.7395,1.7394,0,1.7153,1.7192,1.7226,1.7236,1.726,1.7276,1.7288,1.7306,1.7322,1.7345,1.7356,1.7381,1.7396,1.7417,1.7425,1.7409,1.747,1.745,1.7476,1.7476,1.7489,1.7489,1.7558,1.7497,1.7497,1.7497,1.7497,0,1.7201,1.723,1.7241,1.7262,1.7296,1.73,1.7334,1.7345,1.7362,1.7386,1.7385,1.7408,1.7416,1.7441,1.7448,1.7485,1.7491,1.7497,1.7499,1.7498,1.7498,1.7508,1.7506,1.7499,1.7499,1.7498,1.7498,0,1.7243,1.7251,1.7288,1.7309,1.7315,1.7339,1.7357,1.7379,1.7387,1.7418,1.7426,1.744,1.747,1.7479,1.7515,1.752,1.7564,1.7562,1.7557,1.7558,1.7584,1.7582,1.7663,1.7675,1.7605,1.7606,1.7607,0,1.7274,1.7296,1.732,1.7336,1.7347,1.7373,1.7389,1.7396,1.7413,1.744,1.7458,1.7488,1.7512,1.756,1.7575,1.7603,1.7602,1.7629,1.7607,1.7606,1.7605,1.7604,1.7607,1.7633,1.7634,1.7635,1.7635,0,1.7328,1.7331,1.7355,1.7381,1.74,1.7421,1.7441,1.7455,1.7464,1.7485,1.7515,1.7534,1.7571,1.7601,1.7631,1.7644,1.7642,1.7642,1.765,1.765,1.7647,1.7651,1.757,1.764,1.764,1.7639,1.7639,1.7639,1.7366,1.7387,1.7407,1.7434,1.745,1.747,1.7491,1.7503,1.7528,1.7559,1.7562,1.7595,1.7618,1.7657,1.7672,1.7699,1.7692,1.7703,1.7706,1.7708,1.7711,1.7642,1.7704,1.7704,1.7704,1.7704,1.7704,0,1.7422,1.7435,1.746,1.7488,1.751,1.7506,1.7529,1.7548,1.7577,1.7597,1.7621,1.7658,1.7688,1.7705,1.7736,1.7755,1.7755,1.7763,1.7762,1.7766,1.7715,1.7706,1.7762,1.7762,1.7762,1.7762,1.7762,1.7762,1.7453,1.7489,1.7495,1.754,1.7554,1.7586,1.76,1.7618,1.7635,1.7676,1.77,1.7711,1.7732,1.7764,1.7792,1.7797,1.7809,1.7818,1.7822,1.7775,1.7769,1.7763,1.7755,1.782,1.782,1.787,1.787,1.7871]},{"header":{"parameterUnit":"m.s-1","parameterCategory":1,"la1":30.2991,"la2":30.254,"lo1":-89.0895,"lo2":-89.0444,"dy":0.0017,"dx":0.0017,"nx":28,"ny":28,"refTime":"2025-02-28T03:00:00:Z","depth":0,"parameterNumber":3,"parameterNumberName":"V-component_of_WINDS"},"data":[0,0,0,0,0,0,0,0,0,0,0,0,0,0,0,0,0,0,0,0,0,0,0,0,0,0,0,0,0,0,0,0,0,0,0,0,0,0,0,0,0,0,0,0,0,0,0,0,0,0,0,0,0,0,0,0,0,0,-1.3741,-1.374,0,-1.3637,-1.3636,-1.3635,-1.3618,-1.3619,-1.3619,-1.362,-1.3509,-1.3505,-1.3502,0,0,0,0,0,0,0,0,0,0,0,0,0,-1.3919,-1.3916,-1.3741,-1.374,-1.3738,-1.3638,-1.3636,-1.3635,-1.3617,-1.3619,-1.362,-1.3621,-1.351,-1.3506,-1.3501,0,0,0,0,0,0,0,0,0,0,0,0,0,-1.3831,-1.3914,-1.3741,-1.3718,-1.3715,-1.3638,-1.3636,-1.3634,-1.3617,-1.3619,-1.362,-1.3621,-1.3512,-1.3506,-1.3501,-1.3438,0,0,-1.3483,-1.3481,0,0,0,0,0,0,0,0,-1.3836,-1.3824,-1.3722,-1.3719,-1.3716,-1.3642,-1.3658,-1.3568,-1.3617,-1.3654,-1.362,-1.3622,-1.3552,-1.3543,-1.352,-1.3433,-1.3428,-1.3483,-1.3479,-1.3477,-1.3475,0,0,0,0,0,0,0,-1.3842,-1.3829,-1.37,-1.3721,-1.3717,-1.3711,-1.37,-1.3641,-1.3596,-1.3651,-1.3649,-1.3638,-1.355,-1.3526,-1.3518,-1.3427,-1.3483,-1.3478,-1.3474,-1.3472,-1.3282,-1.3281,0,0,0,0,0,0,-1.3853,-1.3834,-1.3703,-1.3697,-1.378,-1.3706,-1.3694,-1.3664,-1.3597,-1.3588,-1.3637,-1.3637,-1.3535,-1.3524,-1.3514,-1.3436,-1.3477,-1.3471,-1.3468,-1.3284,-1.3282,-1.328,0,0,0,0,0,0,-1.3857,-1.3841,-1.3707,-1.3765,-1.3747,-1.3702,-1.3668,-1.3661,-1.3637,-1.3586,-1.3578,-1.362,-1.3536,-1.3522,-1.3457,-1.3432,-1.3469,-1.3464,-1.3286,-1.3283,-1.3281,-1.328,0,0,0,0,0,0,-1.3862,-1.3843,-1.382,-1.3765,-1.3744,-1.3654,-1.3667,-1.3658,-1.3628,-1.3628,-1.3569,-1.356,-1.3536,-1.3466,-1.3452,-1.3424,-1.3459,-1.3288,-1.3285,-1.3282,-1.3282,-1.3278,-1.3274,0,0,0,0,0,-1.3868,-1.3823,-1.3819,-1.3803,-1.3715,-1.3653,-1.3641,-1.3615,-1.3626,-1.3602,-1.3569,-1.3562,-1.3437,-1.346,-1.3443,-1.3414,-1.3289,-1.3286,-1.3282,-1.3284,-1.3279,-1.3274,0,0,0,0,0,0,-1.3874,-1.3815,-1.381,-1.3746,-1.3705,-1.365,-1.3619,-1.3611,-1.3564,-1.3566,-1.3534,-1.3521,-1.3458,-1.3429,-1.3456,-1.335,-1.3364,-1.3357,-1.3371,-1.3365,-1.3362,-1.3369,-1.3454,0,0,0,0,0,-1.3869,-1.3825,-1.3775,-1.3722,-1.3702,-1.3664,-1.3636,-1.362,-1.3575,-1.3557,-1.352,-1.3476,-1.3426,-1.3394,-1.3346,-1.3278,-1.3264,-1.325,-1.3246,-1.3243,-1.3237,-1.3198,-1.3191,-1.3268,-1.3268,-1.3268,0,0,-1.3855,-1.3818,-1.3791,-1.3723,-1.3689,-1.3643,-1.365,-1.36,-1.3565,-1.3549,-1.3487,-1.3458,-1.3406,-1.334,-1.3308,-1.3314,-1.3213,-1.3238,-1.3236,-1.3232,-1.3193,-1.3186,-1.318,-1.3266,-1.3266,-1.3267,0,0,-1.3808,-1.3775,-1.3728,-1.3695,-1.3644,-1.3619,-1.3608,-1.3555,-1.3535,-1.3473,-1.346,-1.3417,-1.3332,-1.3296,-1.3267,-1.3206,-1.3197,-1.3191,-1.3169,-1.3132,-1.3126,-1.312,-1.3097,-1.309,-1.3185,-1.3185,-1.3185,0,-1.3797,-1.3728,-1.3704,-1.3656,-1.3625,-1.3611,-1.3562,-1.353,-1.3466,-1.3444,-1.3452,-1.3346,-1.331,-1.3235,-1.322,-1.3197,-1.3182,-1.3197,-1.3129,-1.3123,-1.3117,-1.3095,-1.3087,-1.3184,-1.3184,-1.3184,-1.3185,0,-1.3717,-1.367,-1.3638,-1.3578,-1.3544,-1.3496,-1.3462,-1.3431,-1.3417,-1.3391,-1.3327,-1.3283,-1.3226,-1.3207,-1.3193,-1.3129,-1.3134,-1.3136,-1.3149,-1.311,-1.3089,-1.308,-1.3184,-1.3184,-1.3184,-1.3184,0,0,-1.3669,-1.3598,-1.3586,-1.3559,-1.3503,-1.3465,-1.3415,-1.3361,-1.3334,-1.329,-1.3246,-1.3176,-1.3177,-1.3144,-1.3125,-1.3093,-1.3046,-1.3098,-1.3096,-1.3089,-1.2972,-1.297,-1.2961,-1.3041,-1.3039,-1.3037,-1.2976,0,-1.3614,-1.3527,-1.3504,-1.3429,-1.3385,-1.3371,-1.3327,-1.3287,-1.3261,-1.3218,-1.3189,-1.3139,-1.3145,-1.3125,-1.3092,-1.3059,-1.3022,-1.3063,-1.2998,-1.2996,-1.301,-1.295,-1.2948,-1.2892,-1.2967,-1.2966,-1.2965,0,-1.3538,-1.3495,-1.3416,-1.3366,-1.3346,-1.3308,-1.3256,-1.3216,-1.317,-1.3153,-1.3116,-1.3101,-1.3047,-1.3064,-1.2988,-1.3017,-1.2989,-1.2968,-1.2965,-1.2957,-1.2977,-1.2939,-1.2873,-1.2865,-1.2952,-1.2953,-1.2954,0,-1.3509,-1.3432,-1.3375,-1.3352,-1.3292,-1.3265,-1.3238,-1.3194,-1.3163,-1.3117,-1.3096,-1.3044,-1.3015,-1.2974,-1.2945,-1.296,-1.2871,-1.2886,-1.2854,-1.2855,-1.2835,-1.2836,-1.2763,-1.2819,-1.2819,-1.2819,-1.2819,0,-1.345,-1.3402,-1.3361,-1.3326,-1.3272,-1.3245,-1.3191,-1.3164,-1.3125,-1.3082,-1.3067,-1.3027,-1.2991,-1.2946,-1.2922,-1.2863,-1.285,-1.2833,-1.2828,-1.2834,-1.2836,-1.2814,-1.2817,-1.2817,-1.2817,-1.2818,-1.2818,0,-1.3408,-1.3379,-1.3316,-1.3265,-1.3251,-1.3213,-1.3169,-1.3133,-1.3108,-1.3054,-1.304,-1.2999,-1.2945,-1.2912,-1.2844,-1.2828,-1.2761,-1.2757,-1.2778,-1.2775,-1.2744,-1.2747,-1.2653,-1.2639,-1.2706,-1.2705,-1.2705,0,-1.3371,-1.3334,-1.328,-1.3252,-1.3226,-1.318,-1.3149,-1.3121,-1.3089,-1.3034,-1.3004,-1.295,-1.2905,-1.282,-1.2782,-1.2729,-1.2723,-1.2694,-1.2715,-1.2723,-1.2721,-1.2723,-1.2719,-1.269,-1.2689,-1.2689,-1.2689,0,-1.3308,-1.3296,-1.3253,-1.3204,-1.3168,-1.3128,-1.3087,-1.3065,-1.303,-1.2994,-1.294,-1.2906,-1.2836,-1.2782,-1.2726,-1.2697,-1.2686,-1.2683,-1.2672,-1.2678,-1.2691,-1.2682,-1.2767,-1.2684,-1.2685,-1.2685,-1.2685,-1.2686,-1.3267,-1.3234,-1.3191,-1.3143,-1.311,-1.3073,-1.3037,-1.3008,-1.2963,-1.2906,-1.2892,-1.2835,-1.2789,-1.2713,-1.2683,-1.2636,-1.264,-1.2626,-1.2621,-1.2618,-1.2617,-1.27,-1.2626,-1.2626,-1.2626,-1.2626,-1.2626,0,-1.3202,-1.3175,-1.3131,-1.3076,-1.3038,-1.3035,-1.299,-1.2957,-1.2908,-1.2867,-1.2824,-1.2762,-1.2709,-1.2668,-1.2614,-1.2584,-1.2578,-1.2571,-1.2572,-1.2565,-1.2617,-1.2631,-1.2577,-1.2577,-1.2577,-1.2577,-1.2577,-1.2577,-1.3164,-1.3107,-1.309,-1.3017,-1.2988,-1.2934,-1.2909,-1.2874,-1.2842,-1.2773,-1.273,-1.2705,-1.2663,-1.2606,-1.2557,-1.2546,-1.2526,-1.2519,-1.2507,-1.2556,-1.2561,-1.2567,-1.2579,-1.2516,-1.2516,-1.2459,-1.2459,-1.2458]}]]